sat.trackr.live / text

‹ back to catalog

STARLINK-5691

NORAD 55478 · 2023-015AF

PAYLOAD ACTIVE UNKNOWN

§ Identity

Operator
Country
US
Launch date
2023-02-02
Launch site
AFETR
Launch vehicle
Mass (kg)
RCS (m²)

Purposes: comms

External: N2YO · Heavens-Above · Gunter

§ Orbital elements

Epoch: 2026-05-24T08:11:31.484832Z

Period
94.27 min
Inclination
43.0020°
Eccentricity
0.0001430
Mean motion
15.27588259 rev/d
Perigee alt
482.0 km
Apogee alt
484.0 km
Semi-major
6,861.2 km
B*
1.4905e-4
RAAN
250.8866°
Arg perigee
275.2360°
Mean anomaly
84.8328°
Rev number
18,241

§ Raw data

STARLINK-56911 55478U 23015AF  26144.34133663  .00003843  00000+0  14905-3 0  99952 55478  43.0020 250.8866 0001430 275.2360  84.8328 15.27588259182419

JSON: /api/v1/satellites/55478 · /tle

For live sub-satellite position, see the globe view (requires WebGL).

§ Visibility from observer

Set your observer location to see the next 7 days of passes ≥ 10°. The values pass through the URL so the page stays shareable.

No JS? Fill the form by hand. The geolocation button needs JavaScript.